Regional Weather Roundup
Issued by NWS Bismarck, ND

Home | Current Version | Previous Version | Text Only | Print | Product List | Glossary On
Versions: 1 2 3 4 5 6 7 8 9 10 11 12 13 14 15 16 17 18 19 20 21 22 23 24 25 26 27 28 29 30 31 32 33 34 35 36 37 38 39 40 41 42 43 44 45 46 47 48 49 50
124
ASUS43 KBIS 190010
RWRBIS

NWR BROADCAST TEXT
NATIONAL WEATHER SERVICE BISMARCK ND
600 PM CST SUN FEB 18 2018

NOTE: "FAIR" INDICATES FEW OR NO CLOUDS BELOW 12,000 FEET WITH NO
SIGNIFICANT WEATHER AND/OR OBSTRUCTIONS TO VISIBILITY.


CITY           SKY/WX    TMP DP  RH WIND       PRES   REMARKS
WILLISTON      FAIR       6  -1  73 N8        30.05R WCI  -7
MINOT          MOCLDY     8   0  69 N10       30.01R WCI  -6
MINOT AFB      CLOUDY     8   0  71 N10       30.01R WCI  -7
BISMARCK       CLOUDY    11   4  73 N13       29.98R WCI  -4
DICKINSON      CLOUDY     6  -1  73 NE14      29.91R WCI -11
GARRISON         N/A      8  -1  66 N9        29.98R WCI  -5
HETTINGER ARPT LGT SNOW   6   0  76 N21G28    29.88R WCI -14
JAMESTOWN      CLOUDY    10   5  80 N20       29.91R WCI  -9
CARRINGTON     FAIR       9   3  78 N13       29.97R WCI  -7
LINTON           N/A     10   3  72 N15G28    29.93R WCI  -6
OAKES            N/A     12   7  79 N25G35    29.85R WCI  -8
TIOGA          CLOUDY     5   0  78 N10       30.02R WCI -10
$$

CITY           SKY/WX    TMP DP  RH WIND       PRES   REMARKS
GRAND FORKS    CLOUDY    12   7  80 N17       29.96R WCI  -5
GRAND FORKS AF CLOUDY    10   4  75 N14       29.97R WCI  -5
DEVILS LAKE    FAIR       7   1  76 N13       29.98R WCI  -9
FARGO          CLOUDY    13  10  88 N23G33    29.88R BLWGSNOWWCI  -6
CANDO          FAIR       7   0  72 N7        30.00R WCI  -5
CAVALIER         N/A     10   3  72 N12G17    30.01R WCI  -4
GWINNER          N/A     12  10  92 N26G33    29.85R FOG     WCI  -8
ROLLA          FAIR       5  -4  66 N13       29.97R WCI -12
WALHALLA       FAIR       9   1  72 N13       30.02R WCI  -7
$$

CITY           SKY/WX    TMP DP  RH WIND       PRES   REMARKS
ABERDEEN       FLURRIES  18  11  74 N24G33    29.83R WCI   0
MOBRIDGE       CLOUDY    15   7  70 N24G30    29.83R WCI  -4
BUFFALO          N/A      9   3  77 N18       29.80R WCI -10
RAPID CITY     LGT SNOW   8   4  83 N24G32    29.81R VSB 3/4 WCI -13
GLASGOW        MOCLDY     3  -3  76 N5        30.06R WCI  -6
SIDNEY         CLOUDY     7  -1  70 N9        30.06R WCI  -7
WOLF POINT     MOCLDY     5  -3  69 NW8       30.08R WCI  -8
GLENDIVE       CLOUDY     6   1  80 N14       30.00  WCI -11
MILES CITY     LGT SNOW   6   2  83 N15       29.99R FOG     WCI -12
BAKER          LGT SNOW   7   2  80 N13       29.93R WCI  -9
$$

CITY           SKY/WX    TMP DP  RH WIND       PRES   REMARKS
BILLINGS       LGT SNOW   5   2  87 NE13      29.91R VSB 3/4 WCI -12
GREAT FALLS    LGT SNOW   1  -4  79 NE13      29.98R WCI -17
REGINA         PTCLDY     5   0  78 S3        30.03R
ESTEVAN        MOCLDY     0 -11  60 N8        30.04R WCI -15
$$





USA.gov is the U.S. government's official web portal to all federal, state and local government web resources and services.